Regional Weather Roundup
Issued by NWS State College, PA

Home | Current Version | Previous Version | Text Only | Print | Product List | Glossary On
Versions: 1 2 3 4 5 6 7 8 9 10 11 12 13 14 15 16 17 18 19 20 21 22 23 24 25 26 27 28 29 30 31 32 33 34 35 36 37 38 39 40 41 42 43 44 45 46 47 48 49 50
000
ASUS41 KCTP 162210
RWRCTP

REGIONAL WEATHER ROUNDUP
NATIONAL WEATHER SERVICE STATE COLLEGE PA
500 PM EST SAT DEC 16 2017

Note: "fair" indicates few or no clouds below 12,000 feet with no
significant weather and/or obstructions to visibility.

* = STATION THAT DOES NOT REPORT PRECIPITATION /E.G. RAIN...SNOW...ETC/
    THUNDER OR FOG.

PAZ002>004-007>009-013>016-020>023-029>032-162300-
WESTERN PENNSYLVANIA

CITY           SKY/WX    TMP DP  RH WIND       PRES   REMARKS
ERIE           CLOUDY    30  27  88 NE7       30.07R
MEADVILLE      CLOUDY    31  30  96 SW5       30.03R
FRANKLIN*      MIX PCPN  32  27  81 CALM      30.03R
NEW CASTLE     MOCLDY    39  27  62 W5        30.05R
BEAVER COUNTY  CLEAR     39  27  60 CALM      30.03R
BUTLER*        CLEAR     38  25  59 W6        30.04R
PITTSBURGH INT PTCLDY    43  26  51 SW6       30.03R
PITTSBURGH     CLEAR     39  24  55 SW6       30.03R
INDIANA*       PTCLDY    36  27  69 W6        30.06R
LATROBE        CLEAR     37  27  65 W9        30.04R
WASHINGTON CO* CLEAR     41  25  53 SW7       30.07R
$$

PAZ004>006-010>012-017>019-024>028-033>037-041-042-045-046-049>053-162300-
CENTRAL PENNSYLVANIA

CITY           SKY/WX    TMP DP  RH WIND       PRES   REMARKS
BRADFORD       LGT SNOW  29  27  92 W5        29.98R FOG
DUBOIS         CLOUDY    31  26  82 W7        30.00R HAZE
CLEARFIELD     CLOUDY    34  28  79 SW6       30.02R
JOHNSTOWN      PTCLDY    34  24  67 W13       29.98R
ALTOONA        MOCLDY    38  26  62 W12       30.01R
STATE COLLEGE  CLOUDY    36  28  75 SW12      30.02R
WILLIAMSPORT   CLOUDY    39  29  67 W6        30.04R
SELINSGROVE    CLOUDY    39  27  62 W3        30.05R
FT INDIANTOWN  CLOUDY    38  28  68 W3        30.04R
CAPITAL CITY   CLOUDY    45  25  45 W6        30.05R
HARRISBURG     CLOUDY    41  28  60 NW5       30.05R
YORK           PTCLDY    40  23  50 SW5       30.05R
$$

PAZ038>040-043-044-047-048-054-055-060>062-067>071-162300-
EASTERN PENNSYLVANIA

CITY           SKY/WX    TMP DP  RH WIND       PRES   REMARKS
SCRANTON       LGT SNOW  32  26  78 NW6       30.00R
MOUNT POCONO   FLURRIES  29  25  85 W16G23    29.94R
ALLENTOWN      CLOUDY    37  26  64 W8        30.03R
QUAKERTOWN*    CLOUDY    37  25  60 SW5       30.04R
READING        CLOUDY    39  27  62 W3        30.04R
LANCASTER      CLOUDY    40  26  57 W7        30.05R
COATESVILLE    CLOUDY    37  23  56 VRB6      30.05R
POTTSTOWN      CLOUDY    38  23  55 CALM      30.06R
BLUE BELL      CLOUDY    36  27  69 SW6       30.07R
DOYLESTOWN     CLOUDY    37  23  56 SW7       30.03R
WILLOW GROVE   NOT AVBL
NORTH PHILA    CLOUDY    41  24  51 SW10      30.07R
PHILADELPHIA   MOCLDY    40  24  53 SW13      30.07R
$$




USA.gov is the U.S. government's official web portal to all federal, state and local government web resources and services.